EDW785 LSZH-LPMA

Flight info

Callsign EDW785
Flight time N/A
Altitude 33000
Route VEBIT T50 ROTOS Z669 ULMES DCT VADAR DCT NINTU/N0443F350 DCT MEBAK DCT REPSI DCT LERGA DCT MINSO DCT NARAK DCT AGN DCT PIPOR/N0445F370 DCT PPN DCT MIRPO DCT DGO DCT NEA DCT ARDID DCT FTM DCT NASAS DCT LIDRO
Aircraft A320/M-SDE3FGHIRWY/LB1

Departure

Time 2026-05-07 06:12
Airport Zürich Airport (LSZH)

Arrival

Time N/A
Airport Cristiano Ronaldo International Airport (LPMA)
Time Latitude Longitude Altitude Speed Heading
2026-05-07 05:47 47.46042 8.55737 1404 ft 0 kts
2026-05-07 06:04 47.46026 8.55735 1405 ft 4 kts
2026-05-07 06:05 47.45999 8.55730 1404 ft 4 kts
2026-05-07 06:05 47.45973 8.55721 1405 ft 4 kts 22°
2026-05-07 06:05 47.45953 8.55702 1408 ft 4 kts 74°
2026-05-07 06:05 47.45952 8.55693 1408 ft 0 kts 96°
2026-05-07 06:08 47.45951 8.55701 1408 ft 5 kts 96°
2026-05-07 06:08 47.45944 8.55793 1406 ft 10 kts 96°
2026-05-07 06:08 47.45937 8.55885 1404 ft 10 kts 96°
2026-05-07 06:08 47.45930 8.55983 1408 ft 11 kts 96°
2026-05-07 06:09 47.45923 8.56081 1403 ft 9 kts 96°
2026-05-07 06:09 47.45917 8.56171 1404 ft 8 kts 96°
2026-05-07 06:09 47.45908 8.56292 1403 ft 14 kts 96°
2026-05-07 06:09 47.45887 8.56430 1404 ft 14 kts 127°
2026-05-07 06:10 47.45811 8.56532 1403 ft 16 kts 133°
2026-05-07 06:10 47.45788 8.56691 1400 ft 16 kts 94°
2026-05-07 06:10 47.45778 8.56869 1396 ft 18 kts 95°
2026-05-07 06:10 47.45748 8.57017 1405 ft 13 kts 136°
2026-05-07 06:11 47.45668 8.57013 1403 ft 11 kts 222°
2026-05-07 06:11 47.45665 8.56951 1399 ft 0 kts 276°
2026-05-07 06:11 47.45667 8.56916 1399 ft 23 kts 276°
2026-05-07 06:12 47.45713 8.56277 1400 ft 97 kts 276°
2026-05-07 06:12 47.45802 8.54999 1397 ft 151 kts 275°
2026-05-07 06:12 47.45913 8.53413 1855 ft 157 kts 275°
2026-05-07 06:12 47.46036 8.51782 2462 ft 162 kts 275°
2026-05-07 06:13 47.46158 8.50110 2931 ft 168 kts 275°
2026-05-07 06:13 47.46210 8.48338 3339 ft 176 kts 258°
2026-05-07 06:13 47.45517 8.46827 3753 ft 189 kts 221°
2026-05-07 06:13 47.44470 8.45560 4114 ft 203 kts 228°
2026-05-07 06:14 47.43522 8.43907 4405 ft 221 kts 235°
2026-05-07 06:14 47.42895 8.42665 4606 ft 236 kts 236°
2026-05-07 06:14 47.41561 8.39933 5452 ft 249 kts 236°
2026-05-07 06:14 47.40889 8.38556 6005 ft 251 kts 236°
2026-05-07 06:15 47.39858 8.36464 6799 ft 253 kts 236°
2026-05-07 06:15 47.38824 8.34343 7596 ft 256 kts 240°
2026-05-07 06:15 47.38035 8.31976 8348 ft 260 kts 245°
2026-05-07 06:15 47.36943 8.28782 9332 ft 265 kts 243°
2026-05-07 06:16 47.36359 8.27153 9845 ft 267 kts 243°
2026-05-07 06:16 47.35469 8.24689 10322 ft 282 kts 243°
2026-05-07 06:16 47.34513 8.22035 10495 ft 304 kts 243°
2026-05-07 06:16 47.33501 8.19215 10957 ft 315 kts 243°
2026-05-07 06:17 47.32470 8.16333 11590 ft 320 kts 243°
2026-05-07 06:17 47.31427 8.13406 12253 ft 325 kts 243°
2026-05-07 06:17 47.30370 8.10438 12911 ft 329 kts 243°
2026-05-07 06:17 47.29297 8.07434 13544 ft 334 kts 243°
2026-05-07 06:18 47.28210 8.04392 14141 ft 338 kts 243°
2026-05-07 06:18 47.27112 8.01310 14738 ft 341 kts 244°
2026-05-07 06:18 47.26159 7.98100 15330 ft 344 kts 249°
2026-05-07 06:18 47.25251 7.94822 15926 ft 347 kts 249°
2026-05-07 06:19 47.24336 7.91529 16491 ft 350 kts 249°
2026-05-07 06:19 47.23406 7.88205 17087 ft 353 kts 249°
2026-05-07 06:19 47.22464 7.84856 17661 ft 356 kts 248°
2026-05-07 06:19 47.21511 7.81475 18245 ft 359 kts 248°
2026-05-07 06:20 47.20550 7.78074 18734 ft 362 kts 248°
2026-05-07 06:20 47.19578 7.74645 19138 ft 365 kts 247°
2026-05-07 06:20 47.18336 7.71363 19607 ft 370 kts 237°
2026-05-07 06:20 47.16753 7.68340 20078 ft 375 kts 233°
2026-05-07 06:21 47.15126 7.65325 20554 ft 378 kts 233°
2026-05-07 06:21 47.13480 7.62277 21027 ft 382 kts 233°
2026-05-07 06:21 47.11820 7.59211 21478 ft 386 kts 233°
2026-05-07 06:21 47.10141 7.56112 21931 ft 389 kts 233°
2026-05-07 06:22 47.08448 7.52987 22394 ft 393 kts 233°
2026-05-07 06:22 47.05011 7.46649 23303 ft 400 kts 233°
2026-05-07 06:22 47.03268 7.43443 23716 ft 404 kts 233°
2026-05-07 06:23 47.01512 7.40217 24080 ft 407 kts 233°
2026-05-07 06:23 46.99733 7.36968 24447 ft 409 kts 232°
2026-05-07 06:23 46.97941 7.33714 24812 ft 412 kts 232°
2026-05-07 06:23 46.96137 7.30439 25170 ft 414 kts 232°
2026-05-07 06:24 46.94330 7.27150 25507 ft 416 kts 233°
2026-05-07 06:24 46.92515 7.23834 25849 ft 418 kts 233°
2026-05-07 06:24 46.90716 7.20543 26178 ft 420 kts 233°
2026-05-07 06:24 46.88883 7.17194 26518 ft 422 kts 233°
2026-05-07 06:25 46.87040 7.13836 26845 ft 425 kts 232°
2026-05-07 06:25 46.85183 7.10457 27169 ft 427 kts 233°
2026-05-07 06:25 46.83320 7.07074 27492 ft 429 kts 233°
2026-05-07 06:25 46.81442 7.03674 27795 ft 432 kts 233°
2026-05-07 06:26 46.79549 7.00255 28108 ft 433 kts 233°
2026-05-07 06:26 46.77653 6.96830 28402 ft 435 kts 233°
2026-05-07 06:26 46.75744 6.93384 28698 ft 438 kts 233°
2026-05-07 06:26 46.73830 6.89931 29007 ft 439 kts 232°
2026-05-07 06:27 46.71904 6.86464 29291 ft 441 kts 232°
2026-05-07 06:27 46.69970 6.82987 29559 ft 443 kts 232°
2026-05-07 06:27 46.68024 6.79500 29823 ft 445 kts 232°
2026-05-07 06:27 46.66085 6.75981 30055 ft 446 kts 235°
2026-05-07 06:28 46.64397 6.72196 30274 ft 446 kts 240°
2026-05-07 06:28 46.62795 6.68327 30502 ft 447 kts 240°
2026-05-07 06:28 46.61184 6.64453 30725 ft 448 kts 240°
2026-05-07 06:28 46.59568 6.60581 31033 ft 446 kts 240°
2026-05-07 06:29 46.57961 6.56739 31365 ft 444 kts 240°
2026-05-07 06:29 46.56356 6.52909 31695 ft 442 kts 240°
2026-05-07 06:29 46.54758 6.49108 32020 ft 440 kts 240°
2026-05-07 06:29 46.53164 6.45314 32353 ft 439 kts 240°
2026-05-07 06:30 46.51578 6.41546 32664 ft 437 kts 240°
2026-05-07 06:30 46.49993 6.37783 32948 ft 436 kts 240°
2026-05-07 06:30 46.46876 6.30388 33019 ft 424 kts 239°
2026-05-07 06:31 46.43802 6.23122 33024 ft 422 kts 239°
2026-05-07 06:31 46.40725 6.15877 33024 ft 421 kts 239°
2026-05-07 06:32 46.37664 6.08677 33029 ft 419 kts 240°
2026-05-07 06:32 46.34609 6.01502 33022 ft 418 kts 240°
2026-05-07 06:33 46.31549 5.94335 33025 ft 418 kts 240°
2026-05-07 06:33 46.28487 5.87187 33024 ft 418 kts 239°
2026-05-07 06:34 46.25422 5.80054 33022 ft 418 kts 239°
2026-05-07 06:34 46.22357 5.72938 33010 ft 417 kts 240°
2026-05-07 06:35 46.19287 5.65835 33020 ft 416 kts 239°
2026-05-07 06:35 46.16215 5.58760 33021 ft 416 kts 239°
2026-05-07 06:36 46.13100 5.51734 33010 ft 416 kts 238°
2026-05-07 06:36 46.09814 5.44866 33009 ft 416 kts 237°
2026-05-07 06:37 46.06471 5.38057 33010 ft 416 kts 237°
2026-05-07 06:37 46.03155 5.31239 33007 ft 416 kts 237°
2026-05-07 06:38 45.99868 5.24404 33015 ft 415 kts 237°
2026-05-07 06:38 45.96579 5.17585 33019 ft 415 kts 237°
2026-05-07 06:39 45.93287 5.10786 33009 ft 415 kts 237°
2026-05-07 06:39 45.90515 5.05102 33013 ft 415 kts 237°
2026-05-07 06:40 45.88303 5.00572 33006 ft 413 kts 237°
2026-05-07 06:40 45.85014 4.93846 32986 ft 412 kts 237°
2026-05-07 06:41 45.81725 4.87121 33007 ft 412 kts 237°
2026-05-07 06:41 45.78438 4.80399 33018 ft 412 kts 237°
2026-05-07 06:42 45.75145 4.73690 33017 ft 412 kts 237°
2026-05-07 06:42 45.71845 4.66997 33009 ft 412 kts 237°
2026-05-07 06:43 45.68538 4.60305 33021 ft 412 kts 237°
2026-05-07 06:43 45.65239 4.53628 33037 ft 411 kts 237°
2026-05-07 06:44 45.61939 4.46973 33048 ft 410 kts 237°
2026-05-07 06:44 45.58641 4.40339 33056 ft 409 kts 237°
2026-05-07 06:45 45.55342 4.33719 33057 ft 409 kts 237°
2026-05-07 06:45 45.52037 4.27113 33040 ft 409 kts 237°
2026-05-07 06:46 45.48728 4.20511 33031 ft 409 kts 237°
2026-05-07 06:46 45.45424 4.13923 33036 ft 408 kts 237°
2026-05-07 06:47 45.42118 4.07348 33036 ft 408 kts 237°
2026-05-07 06:47 45.38806 4.00785 33036 ft 408 kts 237°
2026-05-07 06:48 45.35494 3.94231 33030 ft 408 kts 237°
2026-05-07 06:48 45.32175 3.87686 33030 ft 408 kts 237°
2026-05-07 06:49 45.28850 3.81156 33010 ft 408 kts 237°
2026-05-07 06:49 45.25549 3.74677 33019 ft 407 kts 237°
2026-05-07 06:50 45.22286 3.68110 33015 ft 407 kts 238°
2026-05-07 06:50 45.19066 3.61510 33024 ft 407 kts 238°
2026-05-07 06:51 45.15831 3.54917 33024 ft 407 kts 238°
2026-05-07 06:51 45.12583 3.48357 33018 ft 407 kts 238°
2026-05-07 06:52 45.09333 3.41809 33028 ft 406 kts 237°
2026-05-07 06:52 45.06081 3.35281 33033 ft 406 kts 237°
2026-05-07 06:53 45.02830 3.28766 33030 ft 405 kts 237°
2026-05-07 06:53 44.99581 3.22262 33029 ft 405 kts 237°
2026-05-07 06:54 44.96332 3.15759 33022 ft 405 kts 237°
2026-05-07 06:54 44.93081 3.09268 33019 ft 405 kts 237°
2026-05-07 06:55 44.89824 3.02791 33012 ft 404 kts 237°
2026-05-07 06:55 44.86558 2.96328 33010 ft 405 kts 237°
2026-05-07 06:56 44.83315 2.89825 33009 ft 405 kts 238°
2026-05-07 06:56 44.80259 2.83172 33014 ft 404 kts 240°
2026-05-07 06:57 44.77254 2.76482 33016 ft 405 kts 239°
2026-05-07 06:57 44.74207 2.69820 33018 ft 405 kts 239°
2026-05-07 06:58 44.71127 2.63187 33015 ft 405 kts 239°
2026-05-07 06:58 44.68041 2.56560 33012 ft 405 kts 239°
2026-05-07 06:59 44.64955 2.49929 33014 ft 405 kts 239°
2026-05-07 06:59 44.61864 2.43305 33014 ft 406 kts 238°
2026-05-07 07:00 44.58764 2.36686 32999 ft 406 kts 238°
2026-05-07 07:00 44.55692 2.30117 33018 ft 405 kts 238°
2026-05-07 07:01 44.52571 2.23478 33030 ft 405 kts 238°
2026-05-07 07:01 44.49490 2.16949 33032 ft 404 kts 238°
2026-05-07 07:02 44.46390 2.10376 33031 ft 404 kts 238°
2026-05-07 07:02 44.43289 2.03809 33030 ft 404 kts 238°
2026-05-07 07:03 44.40184 1.97261 33010 ft 404 kts 238°
2026-05-07 07:03 44.37082 1.90733 33035 ft 403 kts 238°
2026-05-07 07:04 44.33987 1.84216 33045 ft 401 kts 238°
2026-05-07 07:04 44.30895 1.77738 33042 ft 400 kts 238°
2026-05-07 07:05 44.27822 1.71272 33040 ft 399 kts 238°
2026-05-07 07:05 44.24832 1.64740 33039 ft 399 kts 239°
2026-05-07 07:06 44.22365 1.59309 33039 ft 399 kts 239°
2026-05-07 07:06 44.19380 1.52795 33032 ft 398 kts 239°
2026-05-07 07:07 44.16387 1.46320 33038 ft 397 kts 239°
2026-05-07 07:07 44.13387 1.39858 33041 ft 397 kts 238°
2026-05-07 07:08 44.10391 1.33402 33039 ft 397 kts 239°
2026-05-07 07:08 44.07400 1.26958 33037 ft 396 kts 238°
2026-05-07 07:09 44.04395 1.20527 33036 ft 396 kts 238°
2026-05-07 07:09 44.01394 1.14107 33030 ft 396 kts 238°
2026-05-07 07:10 43.98395 1.07694 33042 ft 396 kts 238°
2026-05-07 07:10 43.95394 1.01298 33041 ft 395 kts 238°
2026-05-07 07:11 43.92394 0.94909 33043 ft 395 kts 238°
2026-05-07 07:11 43.89408 0.88578 33040 ft 395 kts 238°
2026-05-07 07:12 43.86483 0.82141 33039 ft 394 kts 240°
2026-05-07 07:12 43.83715 0.75581 33044 ft 394 kts 240°
2026-05-07 07:13 43.80945 0.69021 33030 ft 394 kts 240°
2026-05-07 07:13 43.78138 0.62497 33031 ft 394 kts 239°
2026-05-07 07:14 43.75319 0.55994 33035 ft 394 kts 239°
2026-05-07 07:14 43.72499 0.49499 33035 ft 394 kts 239°
2026-05-07 07:15 43.69673 0.43006 33033 ft 394 kts 239°
2026-05-07 07:15 43.66850 0.36518 33038 ft 394 kts 239°
2026-05-07 07:16 43.64016 0.30038 33034 ft 394 kts 239°
2026-05-07 07:16 43.61177 0.23563 33024 ft 394 kts 239°
2026-05-07 07:17 43.58332 0.17080 33021 ft 394 kts 239°
2026-05-07 07:17 43.55494 0.10609 33024 ft 394 kts 239°
2026-05-07 07:18 43.52651 0.04146 33025 ft 394 kts 239°
2026-05-07 07:18 43.49796 -0.02308 33035 ft 394 kts 238°
2026-05-07 07:19 43.46934 -0.08757 33032 ft 395 kts 238°
2026-05-07 07:19 43.44096 -0.15157 33031 ft 395 kts 238°
2026-05-07 07:20 43.41235 -0.21600 33016 ft 395 kts 238°
2026-05-07 07:20 43.38370 -0.28044 33022 ft 395 kts 238°
2026-05-07 07:21 43.35499 -0.34472 33026 ft 395 kts 238°
2026-05-07 07:21 43.32620 -0.40893 33023 ft 394 kts 238°
2026-05-07 07:22 43.29741 -0.47305 33024 ft 394 kts 238°
2026-05-07 07:22 43.26864 -0.53712 33021 ft 394 kts 238°
2026-05-07 07:23 43.23981 -0.60115 33020 ft 395 kts 238°
2026-05-07 07:23 43.21094 -0.66520 33009 ft 394 kts 238°
2026-05-07 07:24 43.18202 -0.72903 33008 ft 394 kts 238°
2026-05-07 07:24 43.15306 -0.79273 33011 ft 394 kts 237°
2026-05-07 07:25 43.10962 -0.88839 33002 ft 394 kts 237°
2026-05-07 07:26 43.08072 -0.95165 33004 ft 394 kts 237°
2026-05-07 07:26 43.05163 -1.01519 33004 ft 394 kts 237°
2026-05-07 07:27 43.02257 -1.07874 33006 ft 395 kts 237°
2026-05-07 07:27 42.99339 -1.14230 32992 ft 394 kts 237°
2026-05-07 07:28 42.96421 -1.20570 33001 ft 395 kts 237°
2026-05-07 07:28 42.93499 -1.26921 33002 ft 395 kts 237°
2026-05-07 07:29 42.90568 -1.33262 33000 ft 395 kts 237°
2026-05-07 07:29 42.87631 -1.39596 33013 ft 395 kts 237°
2026-05-07 07:30 42.84697 -1.45930 33019 ft 395 kts 237°
2026-05-07 07:30 42.81754 -1.52258 33020 ft 395 kts 237°
2026-05-07 07:31 42.78809 -1.58575 33027 ft 396 kts 237°
2026-05-07 07:31 42.75855 -1.64897 33021 ft 396 kts 237°
2026-05-07 07:32 42.73147 -1.71423 33015 ft 397 kts 248°
2026-05-07 07:32 42.71504 -1.78566 33015 ft 399 kts 251°
2026-05-07 07:33 42.69872 -1.85822 33011 ft 399 kts 251°
2026-05-07 07:33 42.68236 -1.93028 33008 ft 399 kts 251°
2026-05-07 07:34 42.66601 -2.00236 32998 ft 399 kts 251°
2026-05-07 07:34 42.64972 -2.07398 32996 ft 399 kts 250°
2026-05-07 07:35 42.63322 -2.14602 32992 ft 400 kts 251°
2026-05-07 07:35 42.61636 -2.21789 32991 ft 399 kts 250°
2026-05-07 07:36 42.59884 -2.28946 32990 ft 399 kts 249°
2026-05-07 07:36 42.58131 -2.36091 32984 ft 399 kts 249°
2026-05-07 07:37 42.56385 -2.43249 32979 ft 400 kts 249°
2026-05-07 07:37 42.54636 -2.50404 32975 ft 400 kts 249°
2026-05-07 07:38 42.52884 -2.57558 32979 ft 400 kts 249°
2026-05-07 07:38 42.51123 -2.64713 32980 ft 400 kts 249°
2026-05-07 07:39 42.49352 -2.71863 32983 ft 400 kts 249°
2026-05-07 07:39 42.47580 -2.79007 32975 ft 400 kts 249°
2026-05-07 07:40 42.45807 -2.86155 32971 ft 400 kts 249°
2026-05-07 07:40 42.43643 -2.93069 32967 ft 398 kts 243°
2026-05-07 07:41 42.41321 -2.99876 32966 ft 398 kts 243°
2026-05-07 07:41 42.39004 -3.06672 32964 ft 398 kts 243°
2026-05-07 07:42 42.36699 -3.13416 32959 ft 398 kts 243°
2026-05-07 07:42 42.34378 -3.20205 32948 ft 398 kts 243°
2026-05-07 07:43 42.32050 -3.26990 32947 ft 398 kts 243°
2026-05-07 07:43 42.29708 -3.33772 32947 ft 398 kts 243°
2026-05-07 07:44 42.27372 -3.40550 32953 ft 398 kts 243°
2026-05-07 07:44 42.25032 -3.47333 32978 ft 398 kts 242°
2026-05-07 07:45 42.22687 -3.54112 32971 ft 398 kts 242°
2026-05-07 07:45 42.20334 -3.60875 32965 ft 398 kts 242°
2026-05-07 07:46 42.17975 -3.67633 32940 ft 398 kts 242°
2026-05-07 07:46 42.15615 -3.74392 32939 ft 398 kts 242°
2026-05-07 07:47 42.13249 -3.81147 32932 ft 398 kts 242°
2026-05-07 07:47 42.10883 -3.87893 32944 ft 399 kts 242°
2026-05-07 07:48 42.08514 -3.94641 32943 ft 399 kts 242°
2026-05-07 07:48 42.06139 -4.01382 32943 ft 399 kts 242°
2026-05-07 07:49 42.03743 -4.08134 32932 ft 399 kts 242°
2026-05-07 07:49 42.01337 -4.14800 32932 ft 398 kts 240°
2026-05-07 07:50 41.98815 -4.21427 32928 ft 398 kts 240°
2026-05-07 07:50 41.96270 -4.28021 32927 ft 398 kts 240°
2026-05-07 07:51 41.93739 -4.34629 32924 ft 397 kts 240°
2026-05-07 07:51 41.91218 -4.41235 32920 ft 397 kts 240°
2026-05-07 07:52 41.88693 -4.47837 32913 ft 397 kts 240°
2026-05-07 07:52 41.86162 -4.54432 32912 ft 397 kts 240°
2026-05-07 07:53 41.83631 -4.61017 32925 ft 398 kts 240°
2026-05-07 07:53 41.81090 -4.67604 32910 ft 397 kts 240°
2026-05-07 07:54 41.78979 -4.73074 32931 ft 397 kts 239°
2026-05-07 07:54 41.76433 -4.79638 32933 ft 397 kts 239°
2026-05-07 07:55 41.73882 -4.86197 32930 ft 397 kts 239°
2026-05-07 07:55 41.71326 -4.92751 32933 ft 398 kts 239°
2026-05-07 07:56 41.68762 -4.99322 32944 ft 398 kts 239°
2026-05-07 07:56 41.66197 -5.05895 32922 ft 399 kts 239°
2026-05-07 07:57 41.63625 -5.12476 32912 ft 400 kts 239°
2026-05-07 07:57 41.61048 -5.19059 32914 ft 400 kts 239°
2026-05-07 07:58 41.58459 -5.25636 32908 ft 400 kts 239°
2026-05-07 07:58 41.55863 -5.32213 32901 ft 400 kts 239°
2026-05-07 07:59 41.53257 -5.38792 32912 ft 402 kts 239°
2026-05-07 07:59 41.50645 -5.45395 32905 ft 403 kts 239°
2026-05-07 08:00 41.48022 -5.52002 32909 ft 403 kts 239°
2026-05-07 08:00 41.45387 -5.58615 32912 ft 404 kts 239°
2026-05-07 08:01 41.42767 -5.65179 32921 ft 404 kts 239°
2026-05-07 08:01 41.40109 -5.71840 32931 ft 404 kts 240°
2026-05-07 08:02 41.37481 -5.78417 32915 ft 406 kts 240°
2026-05-07 08:02 41.34817 -5.85055 32908 ft 407 kts 240°
2026-05-07 08:03 41.32139 -5.91703 32909 ft 408 kts 240°
2026-05-07 08:03 41.29454 -5.98357 32917 ft 408 kts 240°
2026-05-07 08:04 41.26764 -6.05005 32914 ft 408 kts 240°
2026-05-07 08:04 41.24071 -6.11653 32919 ft 409 kts 241°
2026-05-07 08:05 41.21365 -6.18324 32906 ft 411 kts 241°
2026-05-07 08:05 41.18642 -6.25011 32904 ft 412 kts 241°
2026-05-07 08:06 41.15362 -6.31234 32901 ft 413 kts 229°
2026-05-07 08:06 41.11566 -6.36970 32906 ft 414 kts 229°
2026-05-07 08:07 41.07781 -6.42711 32905 ft 414 kts 229°
2026-05-07 08:07 41.03991 -6.48445 32903 ft 414 kts 230°
2026-05-07 08:08 41.00183 -6.54202 32894 ft 416 kts 230°
2026-05-07 08:08 40.96356 -6.59964 32900 ft 418 kts 230°
2026-05-07 08:09 40.92511 -6.65742 32890 ft 418 kts 230°
2026-05-07 08:09 40.88661 -6.71517 32903 ft 419 kts 230°
2026-05-07 08:10 40.84803 -6.77297 32910 ft 419 kts 230°
2026-05-07 08:10 40.80941 -6.83067 32910 ft 419 kts 230°
2026-05-07 08:11 40.77079 -6.88844 32891 ft 421 kts 232°
2026-05-07 08:11 40.73191 -6.94640 32894 ft 422 kts 231°
2026-05-07 08:12 40.69311 -7.00394 32892 ft 423 kts 232°
2026-05-07 08:12 40.65393 -7.06196 32899 ft 424 kts 232°
2026-05-07 08:13 40.61471 -7.12007 32901 ft 425 kts 232°
2026-05-07 08:13 40.57547 -7.17807 32907 ft 425 kts 232°
2026-05-07 08:14 40.53608 -7.23608 32893 ft 425 kts 233°
2026-05-07 08:14 40.49666 -7.29414 32896 ft 426 kts 233°
2026-05-07 08:15 40.45711 -7.35228 32902 ft 427 kts 233°
2026-05-07 08:15 40.41744 -7.41048 32908 ft 428 kts 233°
2026-05-07 08:16 40.37777 -7.46868 32911 ft 428 kts 233°
2026-05-07 08:16 40.33793 -7.52679 32913 ft 428 kts 233°
2026-05-07 08:17 40.29815 -7.58474 32908 ft 428 kts 233°
2026-05-07 08:17 40.25858 -7.64235 32893 ft 428 kts 234°
2026-05-07 08:18 40.21845 -7.70071 32879 ft 429 kts 234°
2026-05-07 08:18 40.17876 -7.75829 32893 ft 428 kts 234°
2026-05-07 08:19 40.13887 -7.81610 32903 ft 428 kts 234°
2026-05-07 08:19 40.09883 -7.87385 32908 ft 428 kts 234°
2026-05-07 08:20 40.05887 -7.93143 32912 ft 428 kts 234°
2026-05-07 08:20 40.01886 -7.98902 32911 ft 428 kts 234°
2026-05-07 08:21 39.97888 -8.04648 32912 ft 428 kts 234°
2026-05-07 08:21 39.93888 -8.10386 32902 ft 427 kts 234°
2026-05-07 08:22 39.89887 -8.16114 32908 ft 427 kts 234°
2026-05-07 08:22 39.85888 -8.21825 32914 ft 427 kts 234°
2026-05-07 08:23 39.81887 -8.27535 32918 ft 427 kts 234°
2026-05-07 08:23 39.77876 -8.33231 32921 ft 427 kts 234°
2026-05-07 08:24 39.73876 -8.38903 32917 ft 424 kts 236°
2026-05-07 08:24 39.69892 -8.44546 32921 ft 423 kts 236°
2026-05-07 08:25 39.65941 -8.50139 32936 ft 422 kts 236°
2026-05-07 08:25 39.62011 -8.55788 32939 ft 421 kts 237°
2026-05-07 08:26 39.56137 -8.64274 32943 ft 421 kts 237°
2026-05-07 08:26 39.52221 -8.69903 32942 ft 421 kts 236°
2026-05-07 08:27 39.48298 -8.75515 32919 ft 419 kts 237°
2026-05-07 08:27 39.44387 -8.81101 32940 ft 418 kts 237°
2026-05-07 08:28 39.40485 -8.86656 32948 ft 417 kts 237°
2026-05-07 08:28 39.36586 -8.92203 32954 ft 416 kts 237°
2026-05-07 08:29 39.32696 -8.97732 32961 ft 416 kts 237°
2026-05-07 08:29 39.28803 -9.03258 32959 ft 415 kts 237°
2026-05-07 08:30 39.24913 -9.08762 32954 ft 415 kts 237°
2026-05-07 08:30 39.21035 -9.14247 32941 ft 413 kts 237°
2026-05-07 08:31 39.17166 -9.19697 32967 ft 411 kts 237°
2026-05-07 08:31 39.13310 -9.25127 32970 ft 410 kts 237°
2026-05-07 08:32 39.09465 -9.30537 32971 ft 409 kts 237°
2026-05-07 08:32 39.05624 -9.35940 32968 ft 409 kts 237°
2026-05-07 08:33 39.01780 -9.41329 32969 ft 409 kts 237°
2026-05-07 08:33 38.97959 -9.46664 32941 ft 408 kts 236°
2026-05-07 08:34 38.94125 -9.52016 32956 ft 406 kts 236°
2026-05-07 08:34 38.90312 -9.57337 32970 ft 404 kts 236°
2026-05-07 08:35 38.86511 -9.62625 32972 ft 403 kts 236°
2026-05-07 08:35 38.82710 -9.67906 32972 ft 402 kts 236°
2026-05-07 08:36 38.78912 -9.73175 32973 ft 402 kts 236°
2026-05-07 08:36 38.75112 -9.78437 32972 ft 402 kts 236°
2026-05-07 08:37 38.71305 -9.83686 32951 ft 402 kts 235°
2026-05-07 08:37 38.67507 -9.88923 32957 ft 400 kts 235°
2026-05-07 08:38 38.63729 -9.94144 32963 ft 399 kts 235°
2026-05-07 08:38 38.59955 -9.99335 32972 ft 399 kts 235°
2026-05-07 08:39 38.56173 -10.04522 32973 ft 398 kts 235°
2026-05-07 08:39 38.53032 -10.08819 32971 ft 398 kts 235°
2026-05-07 08:40 38.49261 -10.13981 32970 ft 397 kts 235°
2026-05-07 08:40 38.44881 -10.19977 32969 ft 398 kts 235°
2026-05-07 08:41 38.41723 -10.24290 32961 ft 397 kts 234°
2026-05-07 08:41 38.37953 -10.29429 32976 ft 397 kts 234°
2026-05-07 08:42 38.34176 -10.34562 32982 ft 396 kts 234°
2026-05-07 08:42 38.30431 -10.39641 32982 ft 396 kts 234°
2026-05-07 08:43 38.27272 -10.43914 32987 ft 396 kts 234°